Tignall, GA

9:48 PM EDT on August 23, 2016 (GMT -0400)
Washington-Wilkes County

Weather History for KIIY - April, 2014

Change the Weather History Date:

Monday, April 7, 2014

  Actual Average (KDBN) Record (KDBN)
Temperature  
Mean Temperature 54 °F -  
Max Temperature 62 °F 74 °F 89 °F (1954)
Min Temperature 46 °F 45 °F 30 °F (1982)
Degree Days  
Heating Degree Days 11    
Growing Degree Days 4 (Base 50)    
Moisture  
Dew Point 52 °F    
Average Humidity 93    
Maximum Humidity 100    
Minimum Humidity 72    
Precipitation  
Precipitation 0.00 in - - ()
Sea Level Pressure  
Sea Level Pressure 29.83 in    
Wind  
Wind Speed 7 mph (ESE)    
Max Wind Speed 13 mph    
Max Gust Speed 24 mph    
Visibility 7 miles    
Events Rain , Thunderstorm    
Averages and records for this station are not official NWS values.
T = Trace of Precipitation, MM = Missing Value Source: NWS Daily Summary

Daily Weather History Graph

Daily Weather History Graph

Search for Another Location

Airport or City:

Trip Planner

Search our weather history database for the weather conditions in past years. The results will help you decide how hot, cold, wet, or windy it might be!

Date:

Astronomy

Apr. 07, 2014 Rise Set
Actual Time 7:10 AM EDT 7:56 PM EDT
Civil Twilight 6:45 AM EDT 8:21 PM EDT
Nautical Twilight 6:15 AM EDT 8:51 PM EDT
Astronomical Twilight 5:45 AM EDT 9:22 PM EDT
Moon 1:12 PM EDT (4/7) 2:25 AM EDT (4/7)
Length of Visible Light 13h 36m
Length of Day
12h 45m
First Quarter, 53% of the Moon is Illuminated
Apr 7
First Quarter
Apr 15
Full
Apr 22
Last Quarter
Apr 29
New
May 6
First Quarter

Hourly Weather History & Observations

Time (EDT) Temp. Windchill Dew Point Humidity Pressure Visibility Wind Dir Wind Speed Gust Speed Precip Events Conditions
12:15 AM 55.4 °F - 46.4 °F 72% 30.00 in 10.0 mi East 5.8 mph - N/A   Overcast
12:35 AM 53.6 °F - 48.2 °F 82% 29.98 in 10.0 mi East 5.8 mph - N/A Rain Light Rain
12:55 AM 53.6 °F - 50.0 °F 88% 29.99 in 10.0 mi East 5.8 mph - N/A Rain Light Rain
1:15 AM 53.6 °F - 50.0 °F 88% 29.97 in 10.0 mi East 3.5 mph - N/A   Mostly Cloudy
1:35 AM 53.6 °F - 50.0 °F 88% 29.96 in 10.0 mi East 6.9 mph - N/A   Mostly Cloudy
1:55 AM 53.6 °F - 50.0 °F 88% 29.94 in 10.0 mi East 5.8 mph - N/A Rain Light Rain
2:15 AM 53.6 °F - 51.8 °F 94% 29.94 in 10.0 mi East 4.6 mph - N/A   Mostly Cloudy
2:35 AM 53.6 °F - 51.8 °F 94% 29.92 in 10.0 mi East 6.9 mph - N/A   Overcast
2:55 AM 53.6 °F - 51.8 °F 94% 29.91 in 10.0 mi East 5.8 mph - N/A   Overcast
3:15 AM 53.6 °F - 51.8 °F 94% 29.90 in 10.0 mi East 5.8 mph - N/A   Overcast
3:35 AM 53.6 °F - 51.8 °F 94% 29.90 in 10.0 mi East 5.8 mph - N/A   Overcast
3:55 AM 53.6 °F - 51.8 °F 94% 29.89 in 10.0 mi East 4.6 mph - N/A   Overcast
4:15 AM 53.6 °F - 51.8 °F 94% 29.88 in 10.0 mi East 6.9 mph - N/A   Overcast
4:35 AM 53.6 °F - 51.8 °F 94% 29.88 in 10.0 mi East 5.8 mph - N/A   Overcast
4:55 AM 53.6 °F - 51.8 °F 94% 29.87 in 10.0 mi East 5.8 mph - N/A   Overcast
5:15 AM 53.6 °F - 51.8 °F 94% 29.87 in 10.0 mi ESE 3.5 mph - N/A   Overcast
5:35 AM 53.6 °F - 51.8 °F 94% 29.86 in 10.0 mi ESE 4.6 mph - N/A   Overcast
5:55 AM 53.6 °F - 53.6 °F 100% 29.83 in 5.0 mi ESE 9.2 mph - N/A   Overcast
6:15 AM 53.6 °F - 53.6 °F 100% 29.86 in 4.0 mi East 4.6 mph - N/A   Overcast
6:35 AM 53.6 °F - 53.6 °F 100% 29.86 in 2.5 mi Calm Calm - N/A   Overcast
6:55 AM 53.6 °F - 53.6 °F 100% 29.86 in 1.8 mi ENE 3.5 mph - N/A Rain Light Rain
7:15 AM 53.6 °F - 53.6 °F 100% 29.86 in 1.5 mi NNE 3.5 mph - N/A   Light Drizzle
7:35 AM 53.6 °F - 53.6 °F 100% 29.88 in 1.5 mi North 4.6 mph - N/A   Light Drizzle
8:15 AM 51.8 °F - - N/A% 29.91 in 2.0 mi NNE 3.5 mph - N/A Rain Light Rain
8:35 AM 51.8 °F - - N/A% 29.90 in 2.0 mi NE 4.6 mph - N/A Rain Light Rain
8:55 AM 51.8 °F - - N/A% 29.91 in 2.0 mi NNE 5.8 mph - N/A Rain Heavy Rain
9:15 AM 51.8 °F - - N/A% 29.96 in 2.5 mi NNW 10.4 mph 19.6 mph N/A Rain , Thunderstorm Heavy Thunderstorms and Rain
9:35 AM 48.2 °F - - N/A% 29.98 in 1.8 mi NNW 11.5 mph 24.2 mph N/A Rain , Thunderstorm Heavy Thunderstorms and Rain
9:55 AM 46.4 °F 42.9 °F - N/A% 29.94 in 2.0 mi NNE 6.9 mph 17.3 mph N/A Rain , Thunderstorm Heavy Thunderstorms and Rain
10:15 AM 46.4 °F 41.5 °F - N/A% 29.93 in 2.5 mi NE 10.4 mph 19.6 mph N/A Rain , Thunderstorm Heavy Thunderstorms and Rain
10:35 AM 46.4 °F 41.5 °F - N/A% 29.92 in 2.5 mi NE 10.4 mph - N/A Rain , Thunderstorm Heavy Thunderstorms and Rain
10:55 AM 46.4 °F 41.5 °F - N/A% 29.90 in 4.0 mi East 10.4 mph 20.7 mph N/A Rain , Thunderstorm Thunderstorms and Rain
11:15 AM 46.4 °F 42.4 °F - N/A% 29.91 in 4.0 mi East 8.1 mph 20.7 mph N/A Rain , Thunderstorm Rain
11:35 AM 46.4 °F 42.9 °F - N/A% 29.91 in 3.0 mi East 6.9 mph - N/A Rain , Thunderstorm Heavy Thunderstorms and Rain
12:15 PM 48.2 °F - - N/A% 29.90 in 3.0 mi ESE 5.8 mph - N/A Rain Rain
12:35 PM 48.2 °F - - N/A% 29.89 in 3.0 mi ESE 6.9 mph - N/A Rain , Thunderstorm Thunderstorms and Rain
12:55 PM 50.0 °F - - N/A% 29.83 in 3.0 mi ESE 12.7 mph 17.3 mph N/A Rain , Thunderstorm Heavy Thunderstorms and Rain
1:15 PM 51.8 °F - - N/A% 29.84 in 4.0 mi SE 8.1 mph - N/A Rain Heavy Rain
1:35 PM 53.6 °F - - N/A% 29.82 in 5.0 mi ESE 4.6 mph - N/A Rain , Thunderstorm Light Thunderstorms and Rain
1:55 PM 53.6 °F - - N/A% 29.81 in 5.0 mi SE 5.8 mph - N/A Rain , Thunderstorm Thunderstorms and Rain
2:15 PM 53.6 °F - - N/A% 29.80 in 5.0 mi SSE 9.2 mph - N/A Rain Rain
2:35 PM 57.2 °F - - N/A% 29.76 in 10.0 mi SE 10.4 mph - N/A Rain , Thunderstorm Light Thunderstorms and Rain
2:55 PM 59.0 °F - - N/A% 29.74 in 10.0 mi SE 11.5 mph 18.4 mph N/A   Light Drizzle
3:15 PM 59.0 °F - - N/A% 29.75 in 10.0 mi SE 11.5 mph 17.3 mph N/A   Scattered Clouds
3:35 PM 59.0 °F - - N/A% 29.73 in 10.0 mi SE 11.5 mph - N/A   Scattered Clouds
3:55 PM 60.8 °F - - N/A% 29.72 in 10.0 mi SSE 10.4 mph - N/A Rain Light Rain
4:15 PM 60.8 °F - - N/A% 29.71 in 10.0 mi SSE 11.5 mph 16.1 mph N/A Rain Light Rain
4:55 PM 60.8 °F - - N/A% 29.69 in 10.0 mi South 8.1 mph - N/A   Mostly Cloudy
5:15 PM 62.6 °F - - N/A% 29.70 in 10.0 mi South 9.2 mph - N/A Rain Light Rain
5:35 PM 62.6 °F - - N/A% 29.69 in 10.0 mi SSE 8.1 mph - N/A   Mostly Cloudy
5:55 PM 62.6 °F - - N/A% 29.69 in 10.0 mi South 6.9 mph - N/A   Scattered Clouds
6:15 PM 62.6 °F - - N/A% 29.70 in 10.0 mi SSE 8.1 mph - N/A   Scattered Clouds
6:35 PM 62.6 °F - - N/A% 29.70 in 10.0 mi South 6.9 mph - N/A Rain Light Rain
6:55 PM 62.6 °F - - N/A% 29.71 in 10.0 mi South 9.2 mph - N/A   Mostly Cloudy
7:15 PM 62.6 °F - - N/A% 29.71 in 10.0 mi South 11.5 mph 18.4 mph N/A   Overcast
7:35 PM 62.6 °F - - N/A% 29.71 in 10.0 mi South 9.2 mph - N/A   Overcast
7:55 PM 62.6 °F - - N/A% 29.71 in 10.0 mi South 5.8 mph - N/A   Overcast
8:15 PM 62.6 °F - - N/A% 29.72 in 10.0 mi SSW 5.8 mph - N/A Rain Light Rain
8:35 PM 62.6 °F - - N/A% 29.72 in 7.0 mi South 6.9 mph - N/A   Drizzle
8:55 PM 62.6 °F - - N/A% 29.73 in 7.0 mi South 9.2 mph - N/A Rain Rain
9:15 PM 62.6 °F - - N/A% 29.73 in 4.0 mi South 8.1 mph - N/A   Drizzle
9:35 PM 62.6 °F - - N/A% 29.72 in 4.0 mi South 6.9 mph - N/A   Light Drizzle
9:55 PM 62.6 °F - - N/A% 29.73 in 5.0 mi South 6.9 mph - N/A   Haze
10:15 PM 62.6 °F - - N/A% 29.73 in 7.0 mi South 8.1 mph - N/A   Overcast
10:35 PM 62.6 °F - - N/A% 29.73 in 7.0 mi SSW 6.9 mph - N/A   Overcast
10:55 PM 62.6 °F - - N/A% 29.73 in 10.0 mi South 6.9 mph - N/A   Light Drizzle
11:15 PM 62.6 °F - - N/A% 29.72 in 10.0 mi South 6.9 mph - N/A   Overcast
11:35 PM 62.6 °F - - N/A% 29.72 in 7.0 mi South 6.9 mph - N/A   Overcast
11:55 PM 62.6 °F - - N/A% 29.73 in 5.0 mi SSW 9.2 mph - N/A   Haze